User: anonymous   Login
Location: Newark
(30.0333°N, 31.2167°E)
Time: 01:41:51
(UTC+00:00)
Language:

Transit 2A Rocket - Orbit

View from above orbital plane
View from above orbital plane
View from above satellite
View from above satellite

Ground track
Ground track

The orbit data is extracted from the following two-line orbital elements,

1    47U 60007C   20027.45605240 -.00000068  00000-0  96444-5 0  9998
2    47  66.6649 174.6975 0222521  45.7893 316.1249 14.42069864114656
Epoch (UTC): 27 January 2020 10:56:42
Eccentricity: 0.0222521
inclination: 66.6649°
perigee height: 593 km
apogee height: 910 km
right ascension of ascending node: 174.6975°
argument of perigee: 45.7893°
revolutions per day: 14.42069864
mean anomaly at epoch: 316.1249°
orbit number at epoch: 11465

The dashed part of the orbit path shows where the satellite is in the earth's shadow,  

DLR